Regional Weather Roundup
Issued by NWS

Home | Current Version | Previous Version | Graphics & Text | Print | Product List | Glossary On
Versions: 1 2 3 4 5 6 7 8 9 10 11 12 13 14 15 16 17 18 19 20 21 22 23 24 25 26 27 28 29 30 31 32 33 34 35 36 37 38 39 40 41 42 43 44 45 46 47 48 49 50
000
ASUS45 KCYS 012110
RWRWY

WYOMING REGIONAL WEATHER ROUNDUP
NATIONAL WEATHER SERVICE CHEYENNE WY
300 PM MDT WED JUL 01 2015

NOTE:  "FAIR" INDICATES FEW OR NO CLOUDS BELOW 12,000 FEET
WITH NO SIGNIFICANT WEATHER AND/OR OBSTRUCTIONS TO VISIBILITY.

WYZ001-012200-
YELLOWSTONE NATIONAL PARK

CITY           SKY/WX    TMP DP  RH WIND       PRES   REMARKS
LK YELLOWSTONE   N/A     79  35  20 CALM      30.32S
W YELLOWSTONE  NOT AVBL

$$
WYZ002>013-054>058-071-098>099-012200-
NORTHERN WYOMING

CITY           SKY/WX    TMP DP  RH WIND       PRES   REMARKS
JACKSON        FAIR      84  41  21 W14G20    30.20F
CODY           FAIR      84  52  32 N10       30.08F
GREYBULL       FAIR      95  46  18 MISG      29.96F HX  91
WORLAND        FAIR      90  50  25 VRB5      29.99F
SHERIDAN       FAIR      87  49  26 VRB3      30.04F
BUFFALO        FAIR      84  51  31 MISG      30.11F
GILLETTE       FAIR      86  53  32 MISG      30.06F
HULETT         FAIR      81  55  41 N10       30.08S
NEWCASTLE      FAIR      86  46  25 MISG      30.05F

$$
WYZ014>020-022>026-101>103-012200-
CENTRAL WYOMING

CITY           SKY/WX    TMP DP  RH WIND       PRES   REMARKS
BIG PINEY      FAIR      88  38  17 N15       30.24F
PINEDALE       FAIR      82  41  23 NW12G20   30.25F
DUBOIS         FAIR      82  39  21 N18G25    30.22F
LANDER         FAIR      89  55  31 NW5       30.07F
RIVERTON       FAIR      92  45  19 VRB3      30.07F
CASPER         FAIR      91  47  21 N7        30.09F
DOUGLAS        FAIR      88  50  27 MISG      30.08F

$$
WYZ021-027>030-104>119-012200-
SOUTHERN WYOMING

CITY           SKY/WX    TMP DP  RH WIND       PRES   REMARKS
EVANSTON       FAIR      86  33  15 NW15G21   30.27F
KEMMERER       FAIR     N/A N/A N/A W17       30.28F
FORT BRIDGER   PTCLDY    91  36  14 W13G21    30.28F
ROCK SPRINGS   FAIR      85  47  26 CALM      30.20F
DIXON          FAIR      85  47  26 SW8       30.23F
RAWLINS        FAIR      85  41  21 CALM      30.20F
SARATOGA       FAIR      79  43  27 S18G24    30.24F
LARAMIE        FAIR      79  45  29 SW14      30.26F
CHEYENNE       PTSUNNY   80  53  39 SE10      30.19S
TORRINGTON     FAIR      92  48  22 S7        30.01F
PINE BLUFFS    FAIR      86  46  25 NE6       30.12S

$$



USA.gov is the U.S. government's official web portal to all federal, state and local government web resources and services.